West Bend, WI

6:35 AM CST on November 15, 2019 (GMT -0600)
West Bend Municipal

Weather History for KETB - August, 2019

Change the Weather History Date:

Thursday, August 22, 2019

  Actual Average Record
Temperature  
Mean Temperature 61 °F -  
Max Temperature 71 °F 77 °F 95 °F (1936)
Min Temperature 51 °F 57 °F 42 °F (1967)
Degree Days  
Heating Degree Days 4    
Growing Degree Days 11 (Base 50)    
Moisture  
Dew Point 54 °F    
Average Humidity 75    
Maximum Humidity 100    
Minimum Humidity 46    
Precipitation  
Precipitation 0.00 in - - ()
Sea Level Pressure  
Sea Level Pressure 30.07 in    
Wind  
Wind Speed 3 mph (ENE)    
Max Wind Speed 14 mph    
Max Gust Speed 18 mph    
Visibility 10 miles    
Events      
Averages and records for this station are not official NWS values.
T = Trace of Precipitation, MM = Missing Value Source: NWS Daily Summary

Daily Weather History Graph

Daily Weather History Graph

Search for Another Location

Airport or City:

Astronomy

Aug. 22, 2019 Rise Set
Actual Time 6:05 AM CDT 7:44 PM CDT
Civil Twilight 5:34 AM CDT 8:15 PM CDT
Nautical Twilight 4:58 AM CDT 8:51 PM CDT
Astronomical Twilight 4:18 AM CDT 9:30 PM CDT
Moon 11:22 PM CDT (8/22) 12:51 PM CDT (8/22)
Length of Visible Light 14h 40m
Length of Day
13h 39m
Waning Gibbous, 59% of the Moon is Illuminated
Aug 22
Waning Gibbous
Aug 23
Last Quarter
Aug 30
New
Sep 5
First Quarter
Sep 13
Full

Hourly Weather History & Observations

Time (CDT) Temp. Dew Point Humidity Pressure Visibility Wind Dir Wind Speed Gust Speed Precip Events Conditions
12:35 AM 60.8 °F 51.8 °F 72% 30.03 in 10.0 mi North 3.5 mph - N/A   Clear
12:55 AM 60.8 °F 51.8 °F 72% 30.02 in 10.0 mi Calm Calm - N/A   Clear
1:15 AM 60.8 °F 51.8 °F 72% 30.03 in 10.0 mi Calm Calm - N/A   Mostly Cloudy
1:35 AM 59.0 °F 51.8 °F 77% 30.03 in 10.0 mi Calm Calm - N/A   Overcast
1:55 AM 59.0 °F 51.8 °F 77% 30.03 in 10.0 mi North 3.5 mph - N/A   Mostly Cloudy
2:15 AM 59.0 °F 51.8 °F 77% 30.03 in 10.0 mi North 3.5 mph - N/A   Mostly Cloudy
2:35 AM 59.0 °F 51.8 °F 77% 30.02 in 10.0 mi North 4.6 mph - N/A   Mostly Cloudy
2:55 AM 59.0 °F 51.8 °F 77% 30.01 in 10.0 mi NNE 4.6 mph - N/A   Mostly Cloudy
3:15 AM 59.0 °F 53.6 °F 82% 30.01 in 10.0 mi NNE 4.6 mph - N/A   Mostly Cloudy
3:35 AM 59.0 °F 53.6 °F 82% 30.01 in 10.0 mi Calm Calm - N/A   Mostly Cloudy
3:55 AM 57.2 °F 53.6 °F 88% 30.01 in 10.0 mi Calm Calm - N/A   Scattered Clouds
4:35 AM 53.6 °F 53.6 °F 100% 30.02 in 10.0 mi Calm Calm - N/A   Clear
4:55 AM 55.4 °F 53.6 °F 94% 30.02 in 10.0 mi Calm Calm - N/A   Clear
5:15 AM 53.6 °F 53.6 °F 100% 30.02 in 10.0 mi Calm Calm - N/A   Clear
5:35 AM 51.8 °F 51.8 °F 100% 30.03 in 2.0 mi Calm Calm - N/A   Clear
5:55 AM 51.8 °F 51.8 °F 100% 30.03 in 10.0 mi Calm Calm - N/A   Clear
6:15 AM 53.6 °F 53.6 °F 100% 30.05 in 10.0 mi Calm Calm - N/A   Mostly Cloudy
6:35 AM 53.6 °F 53.6 °F 100% 30.05 in 10.0 mi Calm Calm - N/A   Scattered Clouds
6:55 AM 53.6 °F 53.6 °F 100% 30.05 in 10.0 mi Calm Calm - N/A   Scattered Clouds
7:15 AM 55.4 °F 55.4 °F 100% 30.05 in 10.0 mi Calm Calm - N/A   Scattered Clouds
7:35 AM 59.0 °F 57.2 °F 94% 30.05 in 10.0 mi Calm Calm - N/A   Scattered Clouds
7:55 AM 60.8 °F 57.2 °F 88% 30.06 in 10.0 mi ENE 4.6 mph - N/A   Clear
8:15 AM 64.4 °F 59.0 °F 83% 30.06 in 10.0 mi East 5.8 mph - N/A   Clear
8:35 AM 64.4 °F 57.2 °F 77% 30.07 in 10.0 mi NE 5.8 mph - N/A   Clear
8:55 AM 66.2 °F 55.4 °F 68% 30.07 in 10.0 mi East 5.8 mph - N/A   Clear
9:15 AM 68.0 °F 57.2 °F 68% 30.07 in 10.0 mi East 5.8 mph - N/A   Clear
9:35 AM 68.0 °F 55.4 °F 64% 30.06 in 10.0 mi East 6.9 mph - N/A   Clear
9:55 AM 69.8 °F 53.6 °F 56% 30.05 in 10.0 mi East 5.8 mph - N/A   Clear
10:15 AM 69.8 °F 55.4 °F 60% 30.06 in 10.0 mi ESE 5.8 mph - N/A   Clear
10:35 AM 71.6 °F 53.6 °F 53% 30.06 in 10.0 mi ENE 3.5 mph - N/A   Clear
10:55 AM 71.6 °F 50.0 °F 46% 30.06 in 10.0 mi Calm Calm - N/A   Clear
11:15 AM 71.6 °F 51.8 °F 50% 30.06 in 10.0 mi East 5.8 mph - N/A   Scattered Clouds
11:35 AM 71.6 °F 51.8 °F 50% 30.07 in 10.0 mi ESE 4.6 mph - N/A   Scattered Clouds
11:55 AM 71.6 °F 50.0 °F 46% 30.07 in 10.0 mi Calm Calm - N/A   Mostly Cloudy
12:15 PM 69.8 °F 50.0 °F 49% 30.07 in 10.0 mi Calm Calm - N/A   Overcast
12:35 PM 69.8 °F 51.8 °F 53% 30.06 in 10.0 mi East 4.6 mph - N/A   Overcast
12:55 PM 69.8 °F 55.4 °F 60% 30.06 in 10.0 mi East 11.5 mph - N/A   Mostly Cloudy
1:15 PM 69.8 °F 53.6 °F 56% 30.07 in 10.0 mi East 10.4 mph - N/A   Mostly Cloudy
1:35 PM 68.0 °F 53.6 °F 60% 30.07 in 10.0 mi East 10.4 mph - N/A   Overcast
1:55 PM 68.0 °F 53.6 °F 60% 30.08 in 10.0 mi East 9.2 mph - N/A   Overcast
2:15 PM 69.8 °F 53.6 °F 56% 30.08 in 10.0 mi East 8.1 mph - N/A   Overcast
2:35 PM 69.8 °F 53.6 °F 56% 30.08 in 10.0 mi East 12.7 mph - N/A   Mostly Cloudy
2:55 PM 69.8 °F 53.6 °F 56% 30.08 in 10.0 mi East 8.1 mph - N/A   Overcast
3:15 PM 69.8 °F 53.6 °F 56% 30.08 in 10.0 mi East 9.2 mph - N/A   Overcast
3:35 PM 68.0 °F 53.6 °F 60% 30.08 in 10.0 mi East 6.9 mph - N/A   Overcast
3:55 PM 66.2 °F 53.6 °F 64% 30.08 in 10.0 mi East 10.4 mph - N/A   Overcast
4:15 PM 64.4 °F 53.6 °F 68% 30.08 in 10.0 mi ENE 13.8 mph 18.4 mph N/A   Overcast
4:35 PM 64.4 °F 55.4 °F 73% 30.08 in 10.0 mi ENE 8.1 mph - N/A   Overcast
5:35 PM 64.4 °F 55.4 °F 73% 30.09 in 10.0 mi East 9.2 mph - N/A   Overcast
5:55 PM 64.4 °F 55.4 °F 73% 30.08 in 10.0 mi ENE 10.4 mph - N/A   Overcast
6:15 PM 64.4 °F 53.6 °F 68% 30.09 in 10.0 mi ENE 11.5 mph - N/A   Overcast
6:35 PM 62.6 °F 53.6 °F 72% 30.09 in 10.0 mi ENE 9.2 mph - N/A   Overcast
6:55 PM 62.6 °F 53.6 °F 72% 30.10 in 10.0 mi ENE 5.8 mph - N/A   Overcast
7:15 PM 62.6 °F 53.6 °F 72% 30.10 in 10.0 mi ENE 5.8 mph - N/A   Overcast
7:35 PM 60.8 °F 55.4 °F 82% 30.10 in 10.0 mi Calm Calm - N/A   Overcast
7:55 PM 60.8 °F 55.4 °F 82% 30.10 in 10.0 mi ENE 3.5 mph - N/A   Overcast
8:15 PM 60.8 °F 53.6 °F 77% 30.11 in 10.0 mi ENE 3.5 mph - N/A   Overcast
8:35 PM 60.8 °F 53.6 °F 77% 30.12 in 10.0 mi NE 3.5 mph - N/A   Overcast
8:55 PM 60.8 °F 53.6 °F 77% 30.12 in 10.0 mi NNE 3.5 mph - N/A   Overcast
9:15 PM 60.8 °F 53.6 °F 77% 30.12 in 10.0 mi ENE 3.5 mph - N/A   Overcast
9:35 PM 59.0 °F 55.4 °F 88% 30.12 in 10.0 mi Calm Calm - N/A   Mostly Cloudy
9:55 PM 59.0 °F 53.6 °F 82% 30.12 in 10.0 mi Calm Calm - N/A   Scattered Clouds
10:15 PM 59.0 °F 53.6 °F 82% 30.13 in 10.0 mi Calm Calm - N/A   Scattered Clouds
10:35 PM 55.4 °F 53.6 °F 94% 30.13 in 10.0 mi Calm Calm - N/A   Scattered Clouds
10:55 PM 55.4 °F 53.6 °F 94% 30.14 in 10.0 mi Calm Calm - N/A   Scattered Clouds
11:15 PM 55.4 °F 53.6 °F 94% 30.14 in 10.0 mi Calm Calm - N/A   Scattered Clouds
11:35 PM 53.6 °F 53.6 °F 100% 30.14 in 10.0 mi Calm Calm - N/A   Scattered Clouds
11:55 PM 53.6 °F 53.6 °F 100% 30.15 in 10.0 mi Calm Calm - N/A   Clear